Back to catalog

HERMES-2

AliveScienceSSO
NORAD 63243·PAYLOAD·🇮🇹 Italy

Launched Mar 15, 2025 from Vandenberg Space Force Base

Loading…

Next Passes (next 24 hours)

TLE

FreshSource: Space-Track

Epoch: Sep 14, 2026, 11:53 UTC

1 63243U 25052AK  26257.49576654  .00005777  00000-0  19096-3 0  9994
2 63243  97.3754 151.9887 0005336 137.7167 222.4486 15.31747201 83687

Track HERMES-2 in real time with AllMySat

Download on the App Store